Date,TemperatureHighF,TemperatureAvgF,TemperatureLowF,DewpointHighF,DewpointAvgF,DewpointLowF,HumidityHigh,HumidityAvg,HumidityLow,PressureMaxIn,PressureMinIn,WindSpeedMaxMPH,WindSpeedAvgMPH,GustSpeedMaxMPH,PrecipitationSumIn
2013-1-1,41.3,37.8,30.3,31.4,29.0,20.3,76,70,65,29.69,29.54,6,2,15,0.00
2013-1-2,33.5,28.4,24.9,18.9,17.1,15.6,70,63,51,29.87,29.66,7,2,14,0.00
2013-1-3,34.0,28.3,23.3,20.7,17.9,15.5,76,65,49,29.87,29.76,7,2,16,0.00
2013-1-4,38.0,34.0,30.2,24.2,22.8,20.8,69,63,57,29.79,29.67,11,4,19,0.00
2013-1-5,41.3,34.0,29.1,25.7,23.0,19.8,76,64,52,30.00,29.73,12,2,17,0.00
2013-1-6,47.4,39.0,31.8,34.0,29.9,25.4,95,71,48,29.89,29.66,5,1,13,0.02
2013-1-7,46.6,39.3,31.4,32.2,29.1,26.8,83,67,48,30.07,29.75,6,2,13,0.00
2013-1-8,48.4,36.9,28.2,34.9,30.3,24.9,90,78,59,30.08,30.01,7,1,12,0.00
2013-1-9,49.4,41.9,31.3,40.6,36.0,29.7,95,80,68,30.05,29.84,8,2,13,0.00
2013-1-10,50.0,43.4,38.5,34.9,29.3,27.0,69,58,46,30.19,29.97,9,2,16,0.00
2013-1-11,45.5,41.7,37.5,44.4,35.6,27.0,98,80,64,30.18,29.75,3,1,11,0.42
2013-1-12,51.6,45.3,42.4,47.6,44.3,42.1,99,96,86,29.83,29.75,3,0,6,0.00
2013-1-13,49.8,46.1,43.4,49.7,45.9,42.8,100,99,98,29.81,29.66,3,1,8,0.01
2013-1-14,53.4,49.5,40.7,52.7,46.4,37.0,100,90,65,29.95,29.62,6,1,10,0.23
2013-1-15,39.6,37.1,34.4,38.2,32.5,30.1,96,84,73,30.01,29.87,4,2,10,0.21
2013-1-16,36.8,34.6,32.7,36.0,33.9,31.6,99,98,95,29.84,29.47,5,2,10,0.54
2013-1-17,42.1,38.7,37.0,36.6,32.4,29.6,97,79,64,29.76,29.61,6,1,14,0.00
2013-1-18,36.3,31.0,27.7,30.9,18.6,11.5,85,62,42,30.14,29.68,15,2,16,0.00
2013-1-19,50.5,39.1,29.2,31.6,26.8,15.8,81,62,45,30.06,29.61,5,2,20,0.00
2013-1-20,54.3,42.9,30.2,32.2,25.5,11.9,74,53,29,29.72,29.41,14,4,27,0.00
2013-1-21,33.7,28.3,24.5,25.3,15.0,10.9,92,58,45,29.77,29.52,5,1,14,0.00
2013-1-22,24.2,18.2,13.0,12.6,1.9,-2.0,63,48,38,29.91,29.54,11,5,26,0.00
2013-1-23,20.2,14.2,10.1,7.8,2.1,-1.0,83,58,44,29.95,29.84,11,2,18,0.00
2013-1-24,25.0,18.6,13.8,8.8,4.0,0.0,80,54,33,30.10,29.78,7,2,19,0.00
2013-1-25,22.9,16.6,12.4,16.1,6.6,0.3,93,66,43,30.11,29.73,7,2,14,0.00
2013-1-26,27.4,19.3,12.0,14.9,11.5,9.0,93,73,51,30.05,29.72,8,1,15,0.00
2013-1-27,34.8,24.0,14.0,18.4,14.6,9.2,82,68,49,30.22,30.06,6,1,14,0.00
2013-1-28,37.4,31.6,24.7,36.6,28.2,18.2,97,88,71,30.16,29.69,8,1,14,0.01
2013-1-29,50.5,43.2,35.6,46.2,41.0,34.8,98,92,83,29.80,29.68,4,1,10,0.00
2013-1-30,66.6,54.3,42.5,60.3,52.5,42.2,100,94,80,29.70,29.04,10,2,23,0.22
2013-1-31,60.4,44.6,28.9,59.2,33.0,12.5,99,66,41,29.51,28.76,20,7,31,0.61